Location: De Har
(53.3413°N, 6.6858°E)
Time: 16:32:22
(UTC+00:00)

ACS3 Solar Sail - Pass Details

Date: 22 April 2026
Orbit: 890 x 951 km, 97.2° (Epoch: 8 May)

Event Time Altitude Azimuth Distance (km) Brightness Sun altitude
Rises 01:13:42 0° 12° (NNE) 3,553 6.1 -21.0°
Maximum altitude 01:21:57 71° 288° (WNW) 976 1.7 -20.4°
Enters shadow 01:24:20 37° 214° (SW) 1,402 2.1 -20.2°
